Darlington, SC

10:15 PM EDT on May 27, 2017 (GMT -0400)
Darlington County Jetport

Weather History for KUDG - October, 2013

Change the Weather History Date:

Sunday, October 20, 2013

  Actual Average (KFLO) Record (KFLO)
Temperature  
Mean Temperature 60 °F -  
Max Temperature 69 °F 72 °F 88 °F (1969)
Min Temperature 51 °F 48 °F 34 °F (1972)
Degree Days  
Heating Degree Days 5    
Growing Degree Days 10 (Base 50)    
Moisture  
Dew Point 48 °F    
Average Humidity 66    
Maximum Humidity 82    
Minimum Humidity 38    
Precipitation  
Precipitation 0.00 in - - ()
Sea Level Pressure  
Sea Level Pressure 30.04 in    
Wind  
Wind Speed 4 mph (NNE)    
Max Wind Speed 12 mph    
Max Gust Speed 16 mph    
Visibility 10 miles    
Events      
Averages and records for this station are not official NWS values.
T = Trace of Precipitation, MM = Missing Value Source: NWS Daily Summary

Daily Weather History Graph

Daily Weather History Graph

Search for Another Location

Airport or City:

Trip Planner

Search our weather history database for the weather conditions in past years. The results will help you decide how hot, cold, wet, or windy it might be!

Date:

Astronomy

Oct. 20, 2013 Rise Set
Actual Time 7:29 AM EDT 6:38 PM EDT
Civil Twilight 7:03 AM EDT 7:04 PM EDT
Nautical Twilight 6:34 AM EDT 7:33 PM EDT
Astronomical Twilight 6:05 AM EDT 8:02 PM EDT
Moon 7:51 PM EDT (10/20) 9:01 AM EDT (10/20)
Length of Visible Light 12h 00m
Length of Day
11h 09m
Full, 97% of the Moon is Illuminated
Oct 20
Full
Oct 26
Last Quarter
Nov 3
New
Nov 10
First Quarter
Nov 17
Full

Hourly Weather History & Observations

Time (EDT) Temp. Dew Point Humidity Pressure Visibility Wind Dir Wind Speed Gust Speed Precip Events Conditions
12:15 AM 62.6 °F 55.4 °F 77% 29.95 in 10.0 mi Calm Calm - N/A   Mostly Cloudy
12:35 AM 62.6 °F 55.4 °F 77% 29.95 in 10.0 mi Calm Calm - N/A   Overcast
12:55 AM 62.6 °F 55.4 °F 77% 29.95 in 10.0 mi WNW 4.6 mph - N/A   Overcast
1:15 AM 62.6 °F 53.6 °F 72% 29.95 in 10.0 mi WNW 3.5 mph - N/A   Overcast
1:35 AM 62.6 °F 53.6 °F 72% 29.95 in 10.0 mi Calm Calm - N/A   Overcast
1:55 AM 62.6 °F 55.4 °F 77% 29.95 in 10.0 mi Calm Calm - N/A   Overcast
2:15 AM 62.6 °F 55.4 °F 77% 29.95 in 10.0 mi Calm Calm - N/A   Overcast
2:35 AM 60.8 °F 55.4 °F 82% 29.95 in 10.0 mi Calm Calm - N/A   Mostly Cloudy
2:55 AM 60.8 °F 55.4 °F 82% 29.96 in 10.0 mi Calm Calm - N/A   Mostly Cloudy
3:15 AM 60.8 °F 55.4 °F 82% 29.96 in 10.0 mi Calm Calm - N/A   Overcast
3:35 AM 60.8 °F 55.4 °F 82% 29.96 in 10.0 mi Calm Calm - N/A   Mostly Cloudy
3:55 AM 60.8 °F 53.6 °F 77% 29.96 in 10.0 mi NNW 3.5 mph - N/A   Scattered Clouds
4:15 AM 59.0 °F 53.6 °F 82% 29.96 in 10.0 mi NNW 5.8 mph - N/A   Clear
4:35 AM 59.0 °F 53.6 °F 82% 29.96 in 10.0 mi NNW 5.8 mph - N/A   Clear
4:55 AM 57.2 °F 51.8 °F 82% 29.96 in 10.0 mi NNW 6.9 mph - N/A   Clear
5:15 AM 57.2 °F 51.8 °F 82% 29.97 in 10.0 mi North 5.8 mph - N/A   Clear
5:35 AM 57.2 °F 50.0 °F 77% 29.97 in 10.0 mi North 5.8 mph - N/A   Clear
5:55 AM 55.4 °F 50.0 °F 82% 29.98 in 10.0 mi North 5.8 mph - N/A   Clear
6:15 AM 55.4 °F 50.0 °F 82% 29.99 in 10.0 mi North 4.6 mph - N/A   Clear
6:35 AM 55.4 °F 48.2 °F 77% 30.00 in 10.0 mi North 5.8 mph - N/A   Clear
6:55 AM 55.4 °F 48.2 °F 77% 30.00 in 10.0 mi North 6.9 mph - N/A   Clear
7:15 AM 55.4 °F 48.2 °F 77% 30.01 in 10.0 mi North 8.1 mph - N/A   Clear
7:35 AM 55.4 °F 48.2 °F 77% 30.02 in 10.0 mi North 6.9 mph - N/A   Clear
7:55 AM 55.4 °F 48.2 °F 77% 30.03 in 10.0 mi North 6.9 mph - N/A   Clear
8:15 AM 53.6 °F 48.2 °F 82% 30.04 in 10.0 mi North 6.9 mph - N/A   Clear
8:35 AM 55.4 °F 48.2 °F 77% 30.05 in 10.0 mi NNE 8.1 mph - N/A   Clear
8:55 AM 55.4 °F 48.2 °F 77% 30.07 in 10.0 mi NNE 9.2 mph - N/A   Clear
9:15 AM 55.4 °F 46.4 °F 72% 30.08 in 10.0 mi NNE 8.1 mph - N/A   Clear
9:35 AM 57.2 °F 46.4 °F 67% 30.08 in 10.0 mi NNE 9.2 mph - N/A   Clear
9:55 AM 59.0 °F 44.6 °F 59% 30.09 in 10.0 mi NE 10.4 mph - N/A   Clear
10:15 AM 60.8 °F 42.8 °F 52% 30.09 in 10.0 mi NE 11.5 mph - N/A   Clear
10:35 AM 60.8 °F 42.8 °F 52% 30.09 in 10.0 mi NE 10.4 mph 16.1 mph N/A   Clear
10:55 AM 62.6 °F 42.8 °F 48% 30.10 in 10.0 mi NE 9.2 mph - N/A   Clear
11:15 AM 62.6 °F 42.8 °F 48% 30.10 in 10.0 mi North 9.2 mph - N/A   Clear
11:35 AM 64.4 °F 41.0 °F 42% 30.10 in 10.0 mi ENE 8.1 mph - N/A   Clear
11:55 AM 64.4 °F 42.8 °F 45% 30.10 in 10.0 mi NE 8.1 mph - N/A   Clear
12:15 PM 64.4 °F 41.0 °F 42% 30.10 in 10.0 mi NNE 10.4 mph - N/A   Clear
12:35 PM 66.2 °F 42.8 °F 43% 30.10 in 10.0 mi NE 9.2 mph - N/A   Clear
12:55 PM 66.2 °F 42.8 °F 43% 30.10 in 10.0 mi ENE 8.1 mph - N/A   Clear
1:15 PM 68.0 °F 42.8 °F 40% 30.09 in 10.0 mi NNE 5.8 mph - N/A   Clear
1:35 PM 68.0 °F 42.8 °F 40% 30.08 in 10.0 mi ENE 5.8 mph - N/A   Clear
1:55 PM 68.0 °F 42.8 °F 40% 30.07 in 10.0 mi NE 3.5 mph - N/A   Clear
2:15 PM 69.8 °F 42.8 °F 38% 30.06 in 10.0 mi ENE 4.6 mph - N/A   Clear
2:35 PM 69.8 °F 42.8 °F 38% 30.06 in 10.0 mi NE 5.8 mph - N/A   Clear
2:55 PM 68.0 °F 42.8 °F 40% 30.05 in 10.0 mi East 5.8 mph - N/A   Clear
3:15 PM 69.8 °F 44.6 °F 40% 30.05 in 10.0 mi ENE 4.6 mph - N/A   Clear
3:35 PM 69.8 °F 44.6 °F 40% 30.05 in 10.0 mi East 5.8 mph - N/A   Clear
3:55 PM 69.8 °F 44.6 °F 40% 30.05 in 10.0 mi NE 4.6 mph - N/A   Clear
4:15 PM 69.8 °F 44.6 °F 40% 30.05 in 10.0 mi NNE 5.8 mph - N/A   Clear
4:35 PM 69.8 °F 44.6 °F 40% 30.05 in 10.0 mi NNE 3.5 mph - N/A   Clear
4:55 PM 69.8 °F 44.6 °F 40% 30.05 in 10.0 mi East 6.9 mph - N/A   Clear
5:15 PM 69.8 °F 44.6 °F 40% 30.05 in 10.0 mi East 5.8 mph - N/A   Clear
5:35 PM 69.8 °F 44.6 °F 40% 30.06 in 10.0 mi East 6.9 mph - N/A   Clear
5:55 PM 68.0 °F 44.6 °F 43% 30.06 in 10.0 mi ENE 4.6 mph - N/A   Clear
6:15 PM 66.2 °F 46.4 °F 49% 30.06 in 10.0 mi Calm Calm - N/A   Clear
6:35 PM 64.4 °F 50.0 °F 59% 30.06 in 10.0 mi Calm Calm - N/A   Clear
6:55 PM 60.8 °F 51.8 °F 72% 30.07 in 10.0 mi North - - N/A   Clear
7:15 PM 57.2 °F 50.0 °F 77% 30.07 in 10.0 mi North - - N/A   Clear
7:35 PM 55.4 °F 48.2 °F 77% 30.08 in 10.0 mi Calm Calm - N/A   Clear
7:55 PM 57.2 °F 50.0 °F 77% 30.08 in 10.0 mi Calm Calm - N/A   Clear
8:15 PM 55.4 °F 48.2 °F 77% 30.09 in 10.0 mi Calm Calm - N/A   Clear
8:35 PM 53.6 °F 48.2 °F 82% 30.09 in 10.0 mi Calm Calm - N/A   Clear
8:55 PM 53.6 °F 48.2 °F 82% 30.09 in 10.0 mi Calm Calm - N/A   Clear
9:15 PM 53.6 °F 48.2 °F 82% 30.10 in 10.0 mi Calm Calm - N/A   Clear
9:35 PM 53.6 °F 48.2 °F 82% 30.10 in 10.0 mi Calm Calm - N/A   Clear
9:55 PM 53.6 °F 48.2 °F 82% 30.11 in 10.0 mi Calm Calm - N/A   Clear
10:15 PM 53.6 °F 48.2 °F 82% 30.11 in 10.0 mi Calm Calm - N/A   Clear
10:35 PM 51.8 °F 46.4 °F 82% 30.11 in 10.0 mi Calm Calm - N/A   Clear
10:55 PM 51.8 °F 46.4 °F 82% 30.12 in 10.0 mi Calm Calm - N/A   Clear
11:15 PM 51.8 °F 46.4 °F 82% 30.12 in 10.0 mi Calm Calm - N/A   Clear
11:35 PM 51.8 °F 46.4 °F 82% 30.12 in 10.0 mi Calm Calm - N/A   Clear
11:55 PM 51.8 °F 46.4 °F 82% 30.12 in 10.0 mi Calm Calm - N/A   Clear